TimePDT,TemperatureF,Dew PointF,Humidity,Sea Level PressureIn,VisibilityMPH,Wind Direction,Wind SpeedMPH,Gust SpeedMPH,PrecipitationIn,Events,Conditions,WindDirDegrees,DateUTC
12:06 AM,53.6,53.6,100,29.75,2.0,NE,5.8,-,0.08,Rain,Rain,50,2012-10-29 07:06:00
12:37 AM,53.6,53.6,100,29.75,3.0,ENE,3.5,-,0.18,Rain,Light Rain,70,2012-10-29 07:37:00
12:53 AM,53.1,52.0,96,29.76,2.0,East,8.1,-,0.20,Rain,Light Rain,90,2012-10-29 07:53:00
1:03 AM,53.6,51.8,94,29.75,1.8,East,5.8,-,0.02,Rain,Light Rain,80,2012-10-29 08:03:00
1:17 AM,53.6,53.6,100,29.75,2.0,ENE,4.6,-,0.04,Rain,Light Rain,60,2012-10-29 08:17:00
1:28 AM,55.4,55.4,100,29.75,4.0,SSW,9.2,-,0.05,Rain,Light Rain,210,2012-10-29 08:28:00
1:53 AM,57.0,55.9,96,29.75,3.0,South,19.6,-,0.05,,Overcast,180,2012-10-29 08:53:00
2:34 AM,57.2,55.4,94,29.75,4.0,South,20.7,31.1,N/A,,Overcast,180,2012-10-29 09:34:00
2:49 AM,57.2,55.4,94,29.75,2.5,South,21.9,-,0.01,,Overcast,180,2012-10-29 09:49:00
2:53 AM,57.0,55.9,96,29.76,2.5,South,20.7,27.6,0.01,,Overcast,180,2012-10-29 09:53:00
3:10 AM,57.2,55.4,94,29.76,3.0,South,17.3,26.5,N/A,,Overcast,180,2012-10-29 10:10:00
3:13 AM,57.2,55.4,94,29.76,2.5,South,18.4,26.5,N/A,,Overcast,180,2012-10-29 10:13:00
3:22 AM,57.2,55.4,94,29.76,3.0,South,19.6,-,N/A,,Overcast,180,2012-10-29 10:22:00
3:29 AM,57.2,55.4,94,29.76,4.0,South,18.4,-,N/A,,Overcast,180,2012-10-29 10:29:00
3:36 AM,57.2,55.4,94,29.75,4.0,South,20.7,26.5,N/A,,Overcast,180,2012-10-29 10:36:00
3:45 AM,57.2,55.4,94,29.75,6.0,South,18.4,27.6,N/A,,Overcast,180,2012-10-29 10:45:00
3:53 AM,57.0,55.9,96,29.76,5.0,South,21.9,-,N/A,,Overcast,180,2012-10-29 10:53:00
4:44 AM,57.2,55.4,94,29.75,4.0,South,23.0,28.8,N/A,,Overcast,180,2012-10-29 11:44:00
4:53 AM,57.0,55.9,96,29.77,2.5,South,20.7,28.8,N/A,,Overcast,180,2012-10-29 11:53:00
5:32 AM,57.2,55.4,94,29.78,3.0,SSW,23.0,-,N/A,,Overcast,200,2012-10-29 12:32:00
5:53 AM,55.9,55.0,97,29.81,3.0,SSW,17.3,29.9,N/A,,Overcast,200,2012-10-29 12:53:00
6:00 AM,55.4,55.4,100,29.80,2.0,SSW,16.1,-,N/A,,Overcast,200,2012-10-29 13:00:00
6:13 AM,55.4,55.4,100,29.80,3.0,SSW,19.6,-,N/A,,Overcast,200,2012-10-29 13:13:00
6:25 AM,55.4,55.4,100,29.81,2.5,SSW,15.0,-,N/A,,Overcast,210,2012-10-29 13:25:00
6:33 AM,55.4,55.4,100,29.81,4.0,SSW,23.0,28.8,N/A,,Overcast,200,2012-10-29 13:33:00
6:53 AM,55.9,55.0,97,29.84,4.0,SSW,19.6,-,N/A,,Overcast,200,2012-10-29 13:53:00
7:02 AM,55.4,55.4,100,29.83,2.0,SSW,18.4,-,N/A,,Overcast,200,2012-10-29 14:02:00
7:21 AM,55.4,53.6,94,29.84,5.0,SSW,19.6,28.8,0.01,,Overcast,210,2012-10-29 14:21:00
7:53 AM,55.9,54.0,93,29.87,9.0,SSW,18.4,-,0.01,,Overcast,210,2012-10-29 14:53:00
7:56 AM,55.4,53.6,94,29.86,10.0,SSW,17.3,-,N/A,,Overcast,210,2012-10-29 14:56:00
8:53 AM,55.0,54.0,96,29.91,5.0,SSW,17.3,-,N/A,,Overcast,200,2012-10-29 15:53:00
9:30 AM,55.4,53.6,94,29.92,3.0,SSW,16.1,-,N/A,,Overcast,210,2012-10-29 16:30:00
9:36 AM,55.4,53.6,94,29.93,3.0,SSW,16.1,-,N/A,,Overcast,210,2012-10-29 16:36:00
9:53 AM,55.0,53.1,93,29.95,8.0,SSW,16.1,-,N/A,,Overcast,210,2012-10-29 16:53:00
10:02 AM,55.4,53.6,94,29.94,4.0,SW,19.6,27.6,N/A,,Overcast,220,2012-10-29 17:02:00
10:53 AM,55.0,53.1,93,29.98,10.0,SSW,13.8,-,N/A,,Overcast,210,2012-10-29 17:53:00
11:53 AM,55.9,54.0,93,29.99,10.0,SSW,11.5,-,N/A,,Overcast,210,2012-10-29 18:53:00
12:44 PM,55.4,53.6,94,30.00,1.8,SSW,13.8,-,N/A,,Overcast,210,2012-10-29 19:44:00
12:53 PM,55.0,54.0,96,30.01,1.0,SW,13.8,-,0.00,Rain,Light Rain,220,2012-10-29 19:53:00
1:00 PM,55.4,55.4,100,30.00,2.0,SW,10.4,-,0.00,Rain,Light Rain,220,2012-10-29 20:00:00
1:08 PM,55.4,55.4,100,30.00,10.0,SSW,9.2,-,0.00,,Overcast,210,2012-10-29 20:08:00
1:23 PM,55.4,53.6,94,30.00,1.8,SW,12.7,-,0.00,,Overcast,220,2012-10-29 20:23:00
1:32 PM,55.4,55.4,100,30.01,2.5,SW,9.2,-,0.00,Rain,Light Rain,220,2012-10-29 20:32:00
1:39 PM,55.4,53.6,94,30.01,9.0,SW,9.2,-,0.00,,Overcast,220,2012-10-29 20:39:00
1:53 PM,55.0,54.0,96,30.02,6.0,SW,10.4,-,0.00,,Overcast,230,2012-10-29 20:53:00
2:02 PM,55.4,55.4,100,30.01,7.0,SW,9.2,-,N/A,,Overcast,220,2012-10-29 21:02:00
2:18 PM,55.4,55.4,100,30.01,1.8,SW,8.1,-,N/A,,Overcast,220,2012-10-29 21:18:00
2:53 PM,55.0,55.0,100,30.03,1.0,SW,9.2,-,0.01,Rain,Light Rain,220,2012-10-29 21:53:00
3:09 PM,55.4,55.4,100,30.02,3.0,SSW,10.4,-,0.00,,Overcast,210,2012-10-29 22:09:00
3:16 PM,55.4,55.4,100,30.02,4.0,SSW,10.4,-,0.00,,Overcast,200,2012-10-29 22:16:00
3:25 PM,55.4,55.4,100,30.02,2.5,SSW,9.2,-,0.00,,Overcast,200,2012-10-29 22:25:00
3:28 PM,55.4,55.4,100,30.02,4.0,SSW,9.2,-,0.00,,Overcast,200,2012-10-29 22:28:00
3:48 PM,55.4,53.6,94,30.03,1.8,SSW,10.4,-,0.00,Rain,Light Rain,200,2012-10-29 22:48:00
3:53 PM,55.0,54.0,96,30.04,1.2,SSW,8.1,-,0.00,Rain,Light Rain,210,2012-10-29 22:53:00
3:57 PM,55.4,55.4,100,30.03,2.5,SW,6.9,-,0.00,Rain,Light Rain,220,2012-10-29 22:57:00
3:59 PM,55.4,55.4,100,30.03,4.0,SW,8.1,-,0.00,,Overcast,220,2012-10-29 22:59:00
4:19 PM,55.4,53.6,94,30.03,2.5,SSW,5.8,-,0.01,,Overcast,210,2012-10-29 23:19:00
4:24 PM,55.4,55.4,100,30.02,1.8,SSW,5.8,-,0.01,,Overcast,200,2012-10-29 23:24:00
4:35 PM,55.4,55.4,100,30.02,2.0,South,3.5,-,0.01,,Overcast,190,2012-10-29 23:35:00
4:42 PM,55.4,53.6,94,30.03,3.0,SSW,3.5,-,0.01,,Overcast,200,2012-10-29 23:42:00
4:53 PM,55.0,54.0,96,30.04,2.5,SSW,4.6,-,0.01,,Overcast,200,2012-10-29 23:53:00
5:03 PM,53.6,53.6,100,30.03,7.0,SSW,3.5,-,N/A,,Overcast,200,2012-10-30 00:03:00
5:13 PM,55.4,53.6,94,30.02,1.8,South,4.6,-,N/A,,Overcast,190,2012-10-30 00:13:00
5:25 PM,55.4,53.6,94,30.02,3.0,SSW,4.6,-,N/A,,Overcast,200,2012-10-30 00:25:00
5:53 PM,55.0,54.0,96,30.03,9.0,South,5.8,-,N/A,,Overcast,180,2012-10-30 00:53:00
6:53 PM,54.0,54.0,100,30.03,6.0,South,3.5,-,N/A,,Overcast,180,2012-10-30 01:53:00
7:42 PM,53.6,53.6,100,30.00,1.8,SE,3.5,-,N/A,,Overcast,130,2012-10-30 02:42:00
7:53 PM,55.0,54.0,96,30.01,1.0,East,3.5,-,N/A,,Overcast,90,2012-10-30 02:53:00
8:05 PM,55.4,53.6,94,30.00,4.0,East,3.5,-,N/A,,Overcast,90,2012-10-30 03:05:00
8:53 PM,54.0,54.0,100,30.00,3.0,SSE,4.6,-,N/A,,Overcast,150,2012-10-30 03:53:00
9:01 PM,53.6,53.6,100,29.99,2.0,SE,3.5,-,N/A,,Overcast,130,2012-10-30 04:01:00
9:08 PM,53.6,53.6,100,29.99,1.2,ESE,3.5,-,N/A,,Overcast,110,2012-10-30 04:08:00
9:16 PM,53.6,53.6,100,29.99,3.0,SE,4.6,-,N/A,,Overcast,140,2012-10-30 04:16:00
9:53 PM,54.0,54.0,100,30.01,9.0,South,4.6,-,N/A,,Overcast,170,2012-10-30 04:53:00
10:53 PM,55.0,53.1,93,29.99,10.0,SSE,5.8,-,N/A,,Overcast,150,2012-10-30 05:53:00
11:53 PM,54.0,53.1,97,29.97,9.0,SE,3.5,-,0.01,Rain,Light Rain,130,2012-10-30 06:53:00